Location: Brachstadt
(48.6975°N, 10.6755°E)
Time: 05:35:06
(UTC+00:00)

SPOT 1/Viking Rocket - Pass Details

Date: 18 September 2020
Orbit: 777 x 794 km, 98.5° (Epoch: 22 October)

Event Time Altitude Azimuth Distance (km) Brightness Sun altitude
Exits shadow 19:33:45 33° 69° (ENE) 1,304 4.3 -21.4°
Maximum altitude 19:33:59 33° 64° (ENE) 1,301 4.4 -21.5°
Drops below altitude 10° 19:38:34 10° 2° (N) 2,352 6.4 -22.1°
Sets 19:41:04 0° 353° (N) 3,282 7.3 -22.5°
